Regional Weather Roundup
Issued by NWS

Home | Current Version | Previous Version | Text Only | Print | Product List | Glossary Off
Versions: 1 2 3 4 5 6 7 8 9 10 11 12 13 14 15 16 17 18 19 20 21 22 23 24 25 26 27 28 29 30 31 32 33 34 35 36 37 38 39 40 41 42 43 44 45 46 47 48 49 50

000
ASUS45 KCYS 261110
RWRWY

WYOMING REGIONAL WEATHER ROUNDUP
NATIONAL WEATHER SERVICE CHEYENNE WY
500 AM MDT TUE MAY 26 2015

NOTE:  "FAIR" INDICATES FEW OR NO CLOUDS BELOW 12,000 FEET
WITH NO SIGNIFICANT WEATHER AND/OR OBSTRUCTIONS TO VISIBILITY.

WYZ001-261200-
YELLOWSTONE NATIONAL PARK

CITY           SKY/WX    TMP DP  RH WIND       PRES   REMARKS
LK YELLOWSTONE   N/A     36  35  96 CALM      30.09S
W YELLOWSTONE  NOT AVBL

$$
WYZ002>013-054>058-071-098>099-261200-
NORTHERN WYOMING

CITY           SKY/WX    TMP DP  RH WIND       PRES   REMARKS
JACKSON        CLOUDY    45  43  93 NE3       30.05R
CODY           FAIR      50  41  71 W5        29.95R
GREYBULL       FAIR      47  44  90 SE3       29.94R
WORLAND        FAIR      46  43  89 CALM      29.93S
SHERIDAN       FAIR      39  37  92 CALM      29.94R
BUFFALO        FAIR      44  38  79 W3        29.96R
GILLETTE       FOG       40  39  97 CALM      29.96R VSB 1/2
HULETT         FAIR      43  41  93 CALM      29.97S
NEWCASTLE      CLOUDY    50  50 100 S5        29.99R

$$
WYZ014>020-022>026-101>103-261200-
CENTRAL WYOMING

CITY           SKY/WX    TMP DP  RH WIND       PRES   REMARKS
BIG PINEY      FAIR      36  33  89 CALM      30.07R
PINEDALE       FAIR      34  34 100 CALM      30.08R
DUBOIS         PTSUNNY   37  36  93 NW13      30.04S WCI  29
LANDER         FAIR      42  39  89 CALM      29.98S
RIVERTON       FAIR      44  41  89 W8        29.99S
CASPER         FAIR      42  40  92 SW9       29.99R
DOUGLAS        FOG       39  39 100 CALM      30.00R VSB 1/4

$$
WYZ021-027>030-104>119-261200-
SOUTHERN WYOMING

CITY           SKY/WX    TMP DP  RH WIND       PRES   REMARKS
EVANSTON       FAIR      40  37  89 S5        30.07R
KEMMERER       FAIR      37  36  93 CALM      30.08R
FORT BRIDGER   PTSUNNY   43  37  81 W9        30.10R
ROCK SPRINGS   FAIR      41  38  89 SW6       30.06S
DIXON          FAIR      41  38  89 CALM      30.11R
RAWLINS        CLOUDY    41  38  89 SW7       30.06F
SARATOGA       PTSUNNY   41  37  87 MISG      30.08S
LARAMIE        CLOUDY    40  38  93 SW5       30.06S
CHEYENNE       MOCLDY    43  37  79 W10       30.03R
TORRINGTON     FAIR      45  44  97 CALM      29.97S
PINE BLUFFS    FAIR      39  37  93 W5        30.01S

$$



USA.gov is the U.S. government's official web portal to all federal, state and local government web resources and services.